Location: Brede
(50.9167°N, 0.6000°E)
Time: 02:05:15
(UTC+00:00)

Cosmos 2237 Rocket - Pass Details

Date: 08 August 2020
Orbit: 836 x 848 km, 71.0° (Epoch: 27 September)

Event Time Altitude Azimuth Distance (km) Brightness Sun altitude
Rises 02:17:22 0° 322° (NW) 3,410 5.6 -16.9°
Reaches altitude 10° 02:20:15 10° 309° (NW) 2,468 4.7 -16.6°
Maximum altitude 02:24:37 23° 258° (WSW) 1,699 3.4 -16.3°
Enters shadow 02:25:39 22° 242° (WSW) 1,750 3.3 -16.2°
